DLH763 EDDF-EDDM

Flight info

Callsign DLH763
Flight time 0h 29m
Altitude 23000
Route CINDY8S/18 CINDY Z74 HAREM T104 ROKIL ROKIL1A
Aircraft B789/H-SDE1E2E3FGHIJ2J3J4J5M1RWXY/LB1D1

Departure

Time 2026-04-17 13:23
Airport Frankfurt Main Airport (EDDF)

Arrival

Time 2026-04-17 13:53
Airport Munich Airport (EDDM)
Time Latitude Longitude Altitude Speed Heading
2026-04-17 13:04 50.04645 8.56647 360 ft 0 kts 113°
2026-04-17 13:10 50.04647 8.56641 359 ft 2 kts 115°
2026-04-17 13:11 50.04656 8.56615 361 ft 3 kts 127°
2026-04-17 13:11 50.04669 8.56592 351 ft 3 kts 143°
2026-04-17 13:11 50.04686 8.56576 361 ft 3 kts 161°
2026-04-17 13:11 50.04705 8.56570 359 ft 3 kts 188°
2026-04-17 13:12 50.04719 8.56576 361 ft 1 kts 220°
2026-04-17 13:12 50.04721 8.56578 361 ft 0 kts 221°
2026-04-17 13:16 50.04716 8.56572 361 ft 2 kts 221°
2026-04-17 13:16 50.04678 8.56483 356 ft 19 kts 249°
2026-04-17 13:16 50.04627 8.56272 356 ft 21 kts 250°
2026-04-17 13:17 50.04576 8.56057 356 ft 22 kts 250°
2026-04-17 13:17 50.04498 8.55937 355 ft 13 kts 193°
2026-04-17 13:17 50.04440 8.55953 356 ft 7 kts 145°
2026-04-17 13:17 50.04396 8.56012 360 ft 10 kts 143°
2026-04-17 13:18 50.04311 8.56078 355 ft 7 kts 179°
2026-04-17 13:18 50.04264 8.56048 359 ft 8 kts 223°
2026-04-17 13:18 50.04244 8.55968 359 ft 11 kts 254°
2026-04-17 13:18 50.04212 8.55818 356 ft 18 kts 248°
2026-04-17 13:19 50.04148 8.55557 358 ft 29 kts 249°
2026-04-17 13:19 50.04078 8.55265 359 ft 29 kts 250°
2026-04-17 13:19 50.04009 8.54977 360 ft 28 kts 250°
2026-04-17 13:19 50.03940 8.54693 356 ft 28 kts 249°
2026-04-17 13:20 50.03873 8.54409 358 ft 28 kts 250°
2026-04-17 13:20 50.03781 8.54155 360 ft 26 kts 247°
2026-04-17 13:20 50.03724 8.53915 356 ft 23 kts 251°
2026-04-17 13:20 50.03669 8.53677 358 ft 23 kts 249°
2026-04-17 13:21 50.03595 8.53386 355 ft 31 kts 248°
2026-04-17 13:21 50.03520 8.53069 359 ft 31 kts 250°
2026-04-17 13:21 50.03443 8.52759 354 ft 30 kts 247°
2026-04-17 13:21 50.03346 8.52591 355 ft 10 kts 182°
2026-04-17 13:22 50.03337 8.52592 353 ft 0 kts 177°
2026-04-17 13:22 50.03321 8.52593 356 ft 14 kts 177°
2026-04-17 13:22 50.02997 8.52597 354 ft 81 kts 179°
2026-04-17 13:23 50.02216 8.52605 351 ft 142 kts 180°
2026-04-17 13:23 50.01107 8.52610 695 ft 165 kts 180°
2026-04-17 13:23 49.99912 8.52611 1413 ft 182 kts 181°
2026-04-17 13:23 49.98571 8.52603 2154 ft 201 kts 181°
2026-04-17 13:24 49.97136 8.52627 2840 ft 215 kts 175°
2026-04-17 13:24 49.95808 8.53835 3439 ft 234 kts 126°
2026-04-17 13:24 49.95178 8.56121 4563 ft 232 kts 110°
2026-04-17 13:24 49.94487 8.58526 5060 ft 259 kts 120°
2026-04-17 13:25 49.93579 8.61034 5946 ft 268 kts 120°
2026-04-17 13:25 49.92713 8.63603 7010 ft 271 kts 117°
2026-04-17 13:25 49.91878 8.66245 7960 ft 275 kts 117°
2026-04-17 13:25 49.91028 8.68910 8918 ft 280 kts 117°
2026-04-17 13:26 49.90142 8.71622 9861 ft 284 kts 117°
2026-04-17 13:26 49.89240 8.74380 10537 ft 297 kts 117°
2026-04-17 13:26 49.88267 8.77371 10714 ft 326 kts 117°
2026-04-17 13:26 49.87203 8.80642 10876 ft 353 kts 117°
2026-04-17 13:27 49.86053 8.84169 10947 ft 380 kts 117°
2026-04-17 13:27 49.84819 8.87941 11101 ft 401 kts 117°
2026-04-17 13:27 49.83557 8.91799 11831 ft 403 kts 117°
2026-04-17 13:27 49.82280 8.95695 12492 ft 409 kts 117°
2026-04-17 13:28 49.80987 8.99633 13161 ft 414 kts 117°
2026-04-17 13:28 49.79671 9.03632 13809 ft 419 kts 117°
2026-04-17 13:28 49.78341 9.07669 14394 ft 424 kts 117°
2026-04-17 13:28 49.76993 9.11757 14941 ft 428 kts 117°
2026-04-17 13:29 49.75632 9.15876 15502 ft 431 kts 117°
2026-04-17 13:29 49.74080 9.19859 15977 ft 435 kts 128°
2026-04-17 13:29 49.72092 9.23412 16508 ft 437 kts 131°
2026-04-17 13:29 49.70078 9.26915 17256 ft 436 kts 132°
2026-04-17 13:30 49.68098 9.30384 17907 ft 436 kts 131°
2026-04-17 13:30 49.66089 9.33965 18595 ft 436 kts 131°
2026-04-17 13:30 49.64133 9.37440 19162 ft 435 kts 131°
2026-04-17 13:30 49.62144 9.40935 19778 ft 434 kts 131°
2026-04-17 13:31 49.60151 9.44427 20393 ft 433 kts 131°
2026-04-17 13:31 49.58165 9.47921 20980 ft 433 kts 131°
2026-04-17 13:31 49.56184 9.51405 21566 ft 432 kts 131°
2026-04-17 13:31 49.54204 9.54874 22165 ft 432 kts 131°
2026-04-17 13:32 49.52231 9.58323 22732 ft 431 kts 131°
2026-04-17 13:32 49.50248 9.61790 23210 ft 434 kts 131°
2026-04-17 13:32 49.48244 9.65290 23202 ft 436 kts 131°
2026-04-17 13:32 49.46203 9.68847 23206 ft 453 kts 131°
2026-04-17 13:33 49.44077 9.72547 23215 ft 471 kts 131°
2026-04-17 13:33 49.41871 9.76381 23221 ft 487 kts 131°
2026-04-17 13:33 49.39594 9.80336 23223 ft 501 kts 131°
2026-04-17 13:33 49.37281 9.84343 23226 ft 504 kts 131°
2026-04-17 13:34 49.34947 9.88373 23225 ft 506 kts 131°
2026-04-17 13:34 49.32609 9.92401 23221 ft 507 kts 131°
2026-04-17 13:34 49.30263 9.96440 23222 ft 507 kts 131°
2026-04-17 13:34 49.27915 10.00478 23219 ft 508 kts 131°
2026-04-17 13:35 49.25564 10.04515 23223 ft 508 kts 131°
2026-04-17 13:35 49.23211 10.08546 23220 ft 508 kts 131°
2026-04-17 13:35 49.20856 10.12576 23219 ft 508 kts 131°
2026-04-17 13:35 49.18499 10.16604 23224 ft 508 kts 131°
2026-04-17 13:36 49.16149 10.20626 23228 ft 508 kts 131°
2026-04-17 13:36 49.13786 10.24627 23229 ft 508 kts 133°
2026-04-17 13:36 49.11328 10.28492 23234 ft 508 kts 133°
2026-04-17 13:36 49.08923 10.32444 23238 ft 509 kts 133°
2026-04-17 13:37 49.06506 10.36396 23241 ft 509 kts 133°
2026-04-17 13:37 49.04061 10.40286 23241 ft 508 kts 134°
2026-04-17 13:37 49.01608 10.44176 23242 ft 509 kts 133°
2026-04-17 13:37 48.99174 10.48085 23241 ft 509 kts 133°
2026-04-17 13:38 48.96739 10.51993 23247 ft 509 kts 133°
2026-04-17 13:38 48.94293 10.55881 23245 ft 509 kts 134°
2026-04-17 13:38 48.91888 10.59691 22887 ft 476 kts 133°
2026-04-17 13:38 48.89686 10.63190 21438 ft 447 kts 133°
2026-04-17 13:39 48.87644 10.66439 20921 ft 417 kts 133°
2026-04-17 13:39 48.85582 10.69711 20182 ft 435 kts 133°
2026-04-17 13:39 48.83511 10.72985 19412 ft 434 kts 134°
2026-04-17 13:39 48.81420 10.76287 18608 ft 433 kts 134°
2026-04-17 13:40 48.79344 10.79561 17700 ft 429 kts 134°
2026-04-17 13:40 48.77266 10.82823 16750 ft 428 kts 134°
2026-04-17 13:40 48.75214 10.86033 15942 ft 422 kts 134°
2026-04-17 13:40 48.73184 10.89214 15151 ft 416 kts 134°
2026-04-17 13:41 48.71190 10.92336 14360 ft 410 kts 134°
2026-04-17 13:41 48.69214 10.95423 13546 ft 404 kts 134°
2026-04-17 13:41 48.67275 10.98445 12793 ft 396 kts 134°
2026-04-17 13:41 48.65376 11.01399 12031 ft 388 kts 134°
2026-04-17 13:42 48.63597 11.04162 11332 ft 347 kts 134°
2026-04-17 13:42 48.62012 11.06621 10973 ft 306 kts 133°
2026-04-17 13:42 48.60584 11.08839 10851 ft 288 kts 133°
2026-04-17 13:42 48.59183 11.11015 10744 ft 290 kts 133°
2026-04-17 13:43 48.57732 11.13151 10654 ft 293 kts 142°
2026-04-17 13:43 48.56028 11.14826 10554 ft 290 kts 146°
2026-04-17 13:43 48.54939 11.15952 10488 ft 286 kts 144°
2026-04-17 13:43 48.53297 11.17702 10284 ft 293 kts 143°
2026-04-17 13:44 48.51071 11.19911 9867 ft 282 kts 151°
2026-04-17 13:44 48.49918 11.20773 9679 ft 278 kts 152°
2026-04-17 13:44 48.48228 11.22167 9375 ft 276 kts 149°
2026-04-17 13:44 48.46561 11.23578 9064 ft 274 kts 150°
2026-04-17 13:45 48.44890 11.24945 8759 ft 272 kts 150°
2026-04-17 13:45 48.43238 11.26279 8457 ft 270 kts 150°
2026-04-17 13:45 48.41586 11.27621 8142 ft 269 kts 150°
2026-04-17 13:45 48.39952 11.28955 7821 ft 267 kts 150°
2026-04-17 13:46 48.38333 11.30273 7528 ft 264 kts 150°
2026-04-17 13:46 48.36725 11.31580 7221 ft 258 kts 150°
2026-04-17 13:46 48.35167 11.32847 6941 ft 259 kts 148°
2026-04-17 13:46 48.33838 11.34699 6657 ft 259 kts 120°
2026-04-17 13:47 48.33349 11.37136 6341 ft 239 kts 92°
2026-04-17 13:47 48.33412 11.39639 6068 ft 241 kts 84°
2026-04-17 13:47 48.33598 11.42102 5800 ft 234 kts 83°
2026-04-17 13:47 48.33783 11.44514 5534 ft 232 kts 83°
2026-04-17 13:48 48.33970 11.46914 5268 ft 230 kts 82°
2026-04-17 13:48 48.34154 11.49289 5084 ft 230 kts 83°
2026-04-17 13:48 48.34335 11.51678 4813 ft 228 kts 83°
2026-04-17 13:48 48.34513 11.53989 4488 ft 216 kts 82°
2026-04-17 13:49 48.34681 11.56103 4256 ft 189 kts 83°
2026-04-17 13:49 48.34819 11.57915 3964 ft 159 kts 83°
2026-04-17 13:49 48.34937 11.59501 3721 ft 149 kts 82°
2026-04-17 13:49 48.35064 11.60990 3541 ft 141 kts 82°
2026-04-17 13:50 48.35178 11.62445 3396 ft 140 kts 83°
2026-04-17 13:50 48.35297 11.63901 3176 ft 140 kts 82°
2026-04-17 13:50 48.35386 11.65300 3032 ft 139 kts 84°
2026-04-17 13:50 48.35481 11.66741 2914 ft 138 kts 83°
2026-04-17 13:51 48.35599 11.68175 2743 ft 138 kts 82°
2026-04-17 13:51 48.35708 11.69630 2508 ft 139 kts 82°
2026-04-17 13:51 48.35821 11.71069 2305 ft 139 kts 81°
2026-04-17 13:51 48.35933 11.72531 2073 ft 139 kts 80°
2026-04-17 13:52 48.36063 11.73979 1886 ft 139 kts 78°
2026-04-17 13:52 48.36171 11.75439 1694 ft 139 kts 82°
2026-04-17 13:52 48.36284 11.76880 1512 ft 140 kts 80°
2026-04-17 13:52 48.36382 11.78130 1479 ft 94 kts 83°
2026-04-17 13:53 48.36441 11.78902 1488 ft 64 kts 84°
2026-04-17 13:53 48.36408 11.79406 1478 ft 41 kts 112°
2026-04-17 13:53 48.36315 11.79724 1478 ft 18 kts 114°
2026-04-17 13:53 48.36279 11.79807 1483 ft 0 kts 138°
2026-04-17 13:54 48.36223 11.79838 1486 ft 7 kts 175°
2026-04-17 13:54 48.36138 11.79818 1480 ft 6 kts 222°
2026-04-17 13:55 48.36118 11.79627 1491 ft 11 kts 265°
2026-04-17 13:55 48.36106 11.79516 1476 ft 9 kts 249°
2026-04-17 13:55 48.36047 11.79488 1480 ft 11 kts 176°
2026-04-17 13:56 48.35905 11.79474 1480 ft 9 kts 210°
2026-04-17 13:56 48.35849 11.79444 1482 ft 4 kts 173°
2026-04-17 13:56 48.35832 11.79449 1484 ft 2 kts 172°
2026-04-17 13:57 48.35824 11.79444 1483 ft 1 kts 211°
2026-04-17 13:57 48.35751 11.79400 1482 ft 14 kts 175°
2026-04-17 13:57 48.35523 11.79440 1488 ft 19 kts 174°
2026-04-17 13:58 48.35392 11.79463 1478 ft 19 kts 173°
2026-04-17 13:58 48.35123 11.79511 1477 ft 19 kts 173°
2026-04-17 13:58 48.35030 11.79523 1483 ft 1 kts 192°
2026-04-17 13:59 48.35023 11.79470 1483 ft 3 kts 265°
2026-04-17 13:59 48.35018 11.79407 1487 ft 7 kts 263°
2026-04-17 13:59 48.35015 11.79371 1481 ft 0 kts 263°
2026-04-17 14:00 48.35015 11.79370 1481 ft 0 kts 263°